User: anonymous   Login
Location: Pianadetto
(44.4000°N, 10.1000°E)
Time: 04:19:05
(UTC+00:00)
Language:

COSMOS 2441 - Orbit

View from above orbital plane
View from above orbital plane
View from above satellite
View from above satellite

Ground track
Ground track

The orbit data is extracted from the following two-line orbital elements,

1 33272U 08037A   22228.83587472  .00000081  00000-0  30961-4 0  9997
2 33272  98.1521 179.0392 0015831 334.1672  25.8731 14.51954987744756
Epoch (UTC): 16 August 2022 20:03:39
Eccentricity: 0.0015831
inclination: 98.1521°
perigee height: 708 km
apogee height: 730 km
right ascension of ascending node: 179.0392°
argument of perigee: 334.1672°
revolutions per day: 14.51954987
mean anomaly at epoch: 25.8731°
orbit number at epoch: 74475

The dashed part of the orbit path shows where the satellite is in the earth's shadow,  

DLR